GW4148 Weather Reports


time (UTC)temp
C
wind
direction
speed
KPH
gust
KPH
rain 1hr
cm
rain 24hr
cm
rain mn
cm
humidity
%
barometer
mb
20260504081524 18 68 0.0 1.6 0.00 3.20 0.00 92 1018.3
20260504050025 18 108 4.8 11.3 0.20 3.17 3.17 90 1021.1
20260504044520 19 120 1.6 14.5 0.20 3.15 3.15 90 1021.4
20260504043003 19 84 1.6 14.5 0.25 3.12 3.12 90 1021.4
20260504041515 18 27 1.6 12.9 0.30 3.07 3.07 91 1021.6
20260504040014 18 30 8.0 14.5 0.30 2.95 2.95 91 1021.7
20260504034519 18 342 6.4 16.1 0.41 2.95 2.95 92 1021.7
20260504033023 18 18 0.0 1.6 0.41 2.87 2.87 93 1021.6
20260504031507 18 249 0.0 1.6 0.41 2.77 2.77 92 1021.5
20260504030011 18 122 0.0 0.0 0.46 2.64 2.64 92 1021.5
20260504024515 18 155 0.0 6.4 0.46 2.54 2.54 92 1021.4
20260504023020 18 301 0.0 3.2 0.46 2.46 2.46 92 1021.4
20260504021522 18 6 0.0 3.2 0.43 2.36 2.36 92 1021.1
20260504020010 19 22 0.0 1.6 0.38 2.21 2.21 92 1020.9
20260504014519 18 338 3.2 9.7 0.38 2.08 2.08 91 1020.8
20260504013016 19 71 1.6 8.0 0.46 2.01 2.01 91 1020.7
20260504011522 19 75 3.2 14.5 0.51 1.96 1.93 91 1020.5
20260504010024 19 89 1.6 8.0 0.51 1.85 1.83 92 1020.4
20260504004518 19 62 0.0 4.8 0.46 1.73 1.70 92 1020.2
20260504003016 19 75 3.2 8.0 0.38 1.57 1.55 92 1019.9
20260504001517 19 14 1.6 9.7 0.43 1.47 1.42 92 1019.9
20260504000023 19 30 3.2 17.7 0.66 1.42 1.32 91 1019.8
20260503234526 19 321 6.4 9.7 0.81 1.37 1.24 92 1019.5
20260503233035 19 105 0.0 0.0 1.07 1.32 1.17 92 1019.2
20260503231513 20 105 1.6 4.8 0.97 1.14 0.99 92 1019.0
20260503230021 20 83 1.6 4.8 0.64 0.81 0.66 91 1018.9
20260503224524 20 32 0.0 8.0 0.41 0.58 0.43 89 1018.6
20260503223030 20 160 1.6 6.4 0.08 0.28 0.10 86 1018.4
20260503221534 21 237 3.2 9.7 0.00 0.20 0.03 85 1018.1
20260503220020 21 27 3.2 14.5 0.00 0.20 0.03 85 1018.2
20260503214521 21 1 8.0 16.1 0.00 0.20 0.03 83 1018.4
20260503213025 21 336 9.7 16.1 0.00 0.20 0.03 82 1018.4
20260503211528 21 356 11.3 20.9 0.00 0.20 0.03 83 1018.4
20260503210026 22 16 12.9 27.4 0.00 0.20 0.03 82 1018.3
20260503204523 22 4 12.9 20.9 0.00 0.20 0.03 81 1018.3
20260503203022 23 9 14.5 27.4 0.00 0.23 0.03 79 1018.3
20260503201528 23 64 12.9 22.5 0.00 0.23 0.03 77 1017.9
20260503200029 24 86 14.5 25.7 0.00 0.23 0.03 75 1017.9
20260503194527 24 18 11.3 22.5 0.03 0.23 0.03 75 1018.1
20260503193022 25 37 6.4 20.9 0.03 0.33 0.03 73 1018.5
20260503191529 24 23 6.4 14.5 0.03 0.46 0.03 74 1018.6
20260503184528 24 70 6.4 20.9 0.00 1.22 0.00 74 1019.2
20260503183028 25 34 4.8 19.3 0.00 1.22 0.00 72 1019.4
20260503181531 25 34 9.7 19.3 0.00 1.22 0.00 69 1019.6
20260503180025 26 342 11.3 19.3 0.00 1.22 0.00 64 1019.9
20260503174508 26 65 11.3 25.7 0.00 1.22 0.00 65 1020.2
20260503173016 26 311 6.4 20.9 0.00 1.22 0.00 68 1020.5
20260503171520 25 37 9.7 17.7 0.00 1.22 0.00 68 1020.7